Location: Cold Norton
(51.6667°N, 0.6667°E)
Time: 16:39:19
(UTC+00:00)

SJ 16-02 - Pass Details

Date: 18 November 2025
Orbit: 585 x 594 km, 75.0° (Epoch: 13 December)

Event Time Altitude Azimuth Distance (km) Brightness Sun altitude
Rises 19:56:20 0° 248° (WSW) 2,832 5.4 -35.7°
Reaches altitude 10° 19:59:11 10° 268° (W) 1,934 4.6 -36.1°
Enters shadow 20:00:48 16° 288° (WNW) 1,589 4.1 -36.3°
